Date String (YYYY-MM-DD hh:mm:ss) UTC,Instrument flags,Ambient pressure (hPa),Sample flow (lpm),Bypass flow (lpm),Sample temperature (°C),Ambient temperature (°C),ASC tube jacket temperature (°C),LED temperature (°C),Box temperature (°C),Sample RH (%),Span deviation,Mass concentration (μg/m³),Mass concentration (μg/m³),Mass concentration (μg/m³)
DateTimeUTC,F1_M11,P_M11,Q1_M11,Q2_M11,T1_M11,T2_M11,T3_M11,T4_M11,T5_M11,U1_M11,ZSPAN_M11,X2_M11,X0_M11,X1_M11
2023-01-18 05:00:00,,0814.1,5.00,0.00,22.7,21.2,00.0,31.4,24.5,15.6,-001.6,0009.90,0011.87,0009.79
2023-01-18 05:01:00,,0814.1,4.99,0.00,22.7,21.2,00.0,31.4,24.4,15.7,-001.5,0009.92,0011.83,0009.82
2023-01-18 05:02:00,,0814.1,4.99,0.00,22.7,21.2,00.0,31.4,24.4,15.7,-001.6,0009.94,0011.84,0009.85
2023-01-18 05:03:00,,0814.3,5.00,0.00,22.7,21.2,00.0,31.4,24.4,15.7,-001.3,0010.00,0011.93,0009.88
2023-01-18 05:04:00,,0814.3,5.00,0.00,22.7,21.2,00.0,31.5,24.4,15.7,-001.5,0010.06,0012.02,0009.92
2023-01-18 05:05:00,,0814.2,5.00,0.00,22.6,21.2,00.0,31.5,24.4,15.7,-001.7,0010.11,0012.09,0009.95
2023-01-18 05:06:00,,0814.5,4.98,0.00,22.6,21.2,00.0,31.5,24.4,15.7,-001.5,0010.13,0012.09,0009.97
2023-01-18 05:07:00,,0814.3,5.00,0.00,22.6,21.2,00.0,31.5,24.4,15.7,-001.4,0010.15,0012.05,0010.01
2023-01-18 05:08:00,,0814.5,5.01,0.00,22.6,21.2,00.0,31.4,24.4,15.7,-001.2,0010.18,0012.52,0010.03
2023-01-18 05:09:00,,0814.2,5.01,0.00,22.6,21.2,00.0,31.4,24.4,15.8,-001.4,0010.22,0012.73,0010.05
2023-01-18 05:10:00,,0814.2,4.99,0.00,22.6,21.2,00.0,31.4,24.3,15.8,-001.3,0010.25,0012.88,0010.08
2023-01-18 05:11:00,,0814.1,4.99,0.00,22.6,21.2,00.0,31.4,24.3,15.8,-001.1,0010.28,0013.44,0010.11
2023-01-18 05:12:00,,0814.1,5.02,0.00,22.6,21.2,00.0,31.4,24.3,15.8,-001.3,0010.36,0013.86,0010.17
2023-01-18 05:13:00,,0814.2,5.01,0.00,22.6,21.2,00.0,31.4,24.3,15.8,-001.0,0010.45,0014.01,0010.25
2023-01-18 05:14:00,,0814.2,5.00,0.00,22.6,21.2,00.0,31.4,24.3,15.8,-000.9,0010.51,0014.09,0010.32
2023-01-18 05:15:00,,0814.1,4.99,0.00,22.6,21.2,00.0,31.4,24.3,15.8,-000.8,0010.57,0014.22,0010.38
2023-01-18 05:16:00,,0814.2,4.99,0.00,22.6,21.1,00.0,31.4,24.3,15.9,-001.0,0010.62,0014.28,0010.43
2023-01-18 05:17:00,,0814.3,5.01,0.00,22.6,21.1,00.0,31.4,24.3,15.9,-001.3,0010.72,0014.48,0010.50
2023-01-18 05:18:00,,0814.2,4.98,0.00,22.6,21.1,00.0,31.4,24.3,15.9,-001.4,0010.78,0014.68,0010.53
2023-01-18 05:19:00,,0814.5,4.98,0.00,22.6,21.1,00.0,31.4,24.3,15.9,-001.4,0010.83,0014.38,0010.58
2023-01-18 05:20:00,,0814.2,5.00,0.00,22.5,21.1,00.0,31.4,24.3,15.9,-001.4,0010.86,0014.27,0010.63
2023-01-18 05:21:00,,0814.5,4.99,0.00,22.5,21.0,00.0,31.4,24.3,15.9,-001.5,0010.90,0014.21,0010.66
2023-01-18 05:22:00,,0814.2,5.01,0.00,22.5,21.0,00.0,31.3,24.3,15.9,-001.8,0010.91,0013.66,0010.67
2023-01-18 05:23:00,,0814.4,5.00,0.00,22.5,21.0,00.0,31.3,24.3,16.3,-001.8,0010.93,0013.42,0010.65
2023-01-18 05:24:00,,0814.3,5.00,0.00,22.5,21.0,00.0,31.3,24.3,16.7,-002.1,0010.89,0013.38,0010.63
2023-01-18 05:25:00,,0814.2,5.00,0.00,22.5,21.0,00.0,31.3,24.3,16.2,-002.2,0010.86,0013.34,0010.60
2023-01-18 05:26:00,,0814.5,4.99,0.00,22.5,20.9,00.0,31.3,24.3,16.1,-002.3,0010.84,0013.28,0010.59
2023-01-18 05:27:00,,0814.5,5.00,0.00,22.5,20.9,00.0,31.3,24.3,16.1,-002.3,0010.80,0013.31,0010.56
2023-01-18 05:28:00,,0814.3,5.01,0.00,22.5,21.4,00.0,31.3,24.4,16.0,-002.1,0010.72,0013.58,0010.50
2023-01-18 05:29:00,,0814.3,4.99,0.00,22.6,22.3,00.0,31.3,24.6,16.0,-001.9,0010.66,0013.48,0010.45
2023-01-18 05:30:00,,0814.2,5.00,0.00,22.7,23.0,00.0,31.3,24.8,15.9,-001.9,0010.63,0013.33,0010.43
2023-01-18 05:31:00,,0814.3,5.00,0.00,22.8,22.8,00.0,31.4,24.8,15.8,-001.9,0010.61,0013.31,0010.41
2023-01-18 05:32:00,,0814.3,4.98,0.00,22.8,22.5,00.0,31.4,24.8,15.8,-001.9,0010.58,0013.31,0010.38
2023-01-18 05:33:00,,0814.3,5.01,0.00,22.8,22.1,00.0,31.4,24.7,15.8,-001.6,0010.56,0013.33,0010.35
2023-01-18 05:34:00,,0814.4,5.01,0.00,22.8,21.9,00.0,31.4,24.6,15.8,-001.8,0010.51,0013.28,0010.33
2023-01-18 05:35:00,,0814.4,4.98,0.00,22.8,21.8,00.0,31.4,24.6,15.8,-001.7,0010.48,0013.21,0010.30
2023-01-18 05:36:00,,0814.4,4.99,0.00,22.8,21.7,00.0,31.5,24.6,15.8,-001.5,0010.44,0013.13,0010.27
2023-01-18 05:37:00,,0814.4,5.00,0.00,22.8,21.6,00.0,31.5,24.6,15.8,-001.3,0010.39,0013.05,0010.23
2023-01-18 05:38:00,,0814.3,5.02,0.00,22.8,21.6,00.0,31.5,24.6,15.8,-001.2,0010.40,0012.95,0010.23
2023-01-18 05:39:00,,0814.3,5.00,0.00,22.8,21.5,00.0,31.5,24.6,15.8,-001.1,0010.43,0012.60,0010.24
2023-01-18 05:40:00,,0814.3,5.00,0.00,22.8,21.5,00.0,31.5,24.6,15.8,-001.3,0010.46,0012.61,0010.27
2023-01-18 05:41:00,,0814.5,5.00,0.00,22.8,21.4,00.0,31.5,24.6,15.8,-001.1,0010.48,0012.71,0010.30
2023-01-18 05:42:00,,0814.5,4.98,0.00,22.8,21.4,00.0,31.5,24.6,15.8,-001.0,0010.51,0012.74,0010.32
2023-01-18 05:43:00,,0814.5,5.02,0.00,22.8,21.3,00.0,31.5,24.6,15.8,-000.8,0010.50,0012.73,0010.30
2023-01-18 05:44:00,,0814.4,5.00,0.00,22.7,21.3,00.0,31.5,24.5,15.9,-000.9,0010.51,0012.79,0010.30
2023-01-18 05:45:00,,0814.5,4.99,0.00,22.7,21.2,00.0,31.5,24.5,15.9,-000.7,0010.55,0012.81,0010.31
2023-01-18 05:46:00,,0814.4,5.00,0.00,22.7,21.2,00.0,31.5,24.5,15.9,-000.4,0010.58,0012.85,0010.33
2023-01-18 05:47:00,,0814.3,5.01,0.00,22.7,21.2,00.0,31.5,24.5,15.9,-000.5,0010.62,0012.89,0010.35
2023-01-18 05:48:00,,0814.4,4.98,0.00,22.7,21.2,00.0,31.5,24.5,15.9,-000.8,0010.67,0012.99,0010.37
2023-01-18 05:49:00,,0814.3,5.00,0.00,22.7,21.2,00.0,31.5,24.5,15.9,-000.7,0010.70,0013.06,0010.39
2023-01-18 05:50:00,,0814.3,4.99,0.00,22.7,21.2,00.0,31.5,24.5,15.9,-000.7,0010.70,0013.07,0010.40
2023-01-18 05:51:00,,0814.3,5.00,0.00,22.7,21.1,00.0,31.5,24.5,15.9,-000.7,0010.69,0013.05,0010.38
2023-01-18 05:52:00,,0814.2,5.01,0.00,22.7,21.1,00.0,31.5,24.5,15.9,-000.8,0010.64,0013.08,0010.35
2023-01-18 05:53:00,,0814.2,5.00,0.00,22.7,21.1,00.0,31.4,24.5,15.9,-001.0,0010.61,0013.04,0010.32
2023-01-18 05:54:00,,0814.4,5.01,0.00,22.6,21.0,00.0,31.4,24.4,16.0,-001.3,0010.65,0013.05,0010.37
2023-01-18 05:55:00,,0814.2,4.99,0.00,22.6,21.0,00.0,31.4,24.4,16.0,-000.9,0010.64,0013.14,0010.37
2023-01-18 05:56:00,,0814.1,5.02,0.00,22.6,20.9,00.0,31.4,24.3,16.0,-000.8,0010.42,0013.06,0010.18
2023-01-18 05:57:00,,0814.2,5.00,0.00,22.6,21.1,00.0,31.4,24.3,15.9,-001.0,0010.12,0012.75,0009.91
2023-01-18 05:58:00,,0814.1,5.01,0.00,22.7,22.0,00.0,31.4,24.5,15.8,-000.9,0009.83,0012.45,0009.63
2023-01-18 05:59:00,,0814.2,5.00,0.00,22.7,22.8,00.0,31.4,24.8,15.7,-001.1,0009.47,0012.10,0009.31
